Location: Trout Lake
(45.9980°N, 121.5270°W)
Time: 20:03:18
(UTC-08:00)

Cosmos 1818 - Pass Details

Date: 06 December 2023
Orbit: 771 x 801 km, 65.0° (Epoch: 22 February)

Event Time Altitude Azimuth Distance (km) Brightness Sun altitude
Rises 17:28:46 0° 206° (SSW) 3,254 7.5 -11.3°
Reaches altitude 10° 17:31:10 10° 205° (SSW) 2,335 6.7 -11.7°
Maximum altitude 17:36:30 70° 122° (ESE) 839 3.6 -12.6°
Enters shadow 17:41:08 14° 41° (NE) 2,072 5.2 -13.3°
